Find Kosmos-1362

NORAD ID: 13165 Int'l Des: 1982-040 Owner: GUKOS Country: SU operational
LEOCIRCULAR

Live-Position

3D-Globus wird geladen...

Über Kosmos-1362

Beschreibung wird geladen...

Nächste Überflüge

Passes for default location (London). Set your location on the main map for personalized predictions.

Höhenverlauf

Loading altitude history...

Zweizeiliger Elementsatz

1 13165U 82040F 26106.67734751 -.00000001 00000-0 99021-4 0 9992
2 13165 74.0123 187.9149 0017593 37.3619 77.7190 12.46159737999056
Epoch: 16. Apr. 2026 • Age: 18 hours

Aktueller Status

Höhe 1490.0 km
Geschwindigkeit 7.12 km/s
Subsatellitenpunkt -36.26°S, 168.67°E
Startdatum 6. Mai 1982
Alter 43.9 years
Typ other

Technische Details

Klassifizierung Payload
Masse 60.00 kg
Trockenmasse 60.00 kg
Gesamtmasse 60.00 kg
Länge 0.80 m
Durchmesser 0.80 m
Spannweite 0.80 m
Form Poly
Hersteller NPOPM
Bus-Typ Strela-1 11F625
Phasenstatus In Orbit
Besitzer/Staat GUKOS/SU

Most Searched